Powrót do katalogu

COSMOS 2068

AktywnyNawigacjaLEO
NORAD 20553·PAYLOAD·🇷🇺 Russia

Wystrzelony Apr 6, 1990 z Plesetsk Cosmodrome

Loading…

Następne Przeloty (najbliższe 24 godziny)

TLE

ŚwieżeSource: Space-Track

Epoka: Sep 14, 2026, 14:09 UTC

1 20553U 90029E   26257.59026920 -.00000005  00000-0  65950-4 0  9995
2 20553  73.9821 305.5108 0030341  79.8610 353.6892 12.56275391671204

Śledź COSMOS 2068 w czasie rzeczywistym z AllMySat

Download on the App Store